Location: Brede
(50.9167°N, 0.6000°E)
Time: 14:46:33
(UTC+00:00)

N. Korean satellite - Visible Passes

Search period start: 09 December 2021 00:00
Search period end: 19 December 2021 00:00
Orbit: 446 x 495 km, 97.3° (Epoch: 08 December)

Date Brightness Start Highest point End Pass type
(mag) Time Alt. Az. Time Alt. Az. Time Alt. Az.
09 Dec 6.2 05:33:49 10° N 05:37:13 72° WNW 05:40:35 10° SSW visible
10 Dec 7.8 05:05:19 10° NNE 05:09:43 34° SSE 05:11:56 10° S visible
10 Dec 8.1 06:39:31 10° NNW 06:43:52 - WSW 06:41:19 15° WNW visible
10 Dec 9.6 17:18:18 10° SW 17:20:39 17° W 17:23:02 10° NW visible
11 Dec 9.1 04:37:09 10° NE 04:41:39 16° SE 04:42:43 10° SSE visible
11 Dec 7.9 06:10:13 10° N 06:15:46 12° SW 06:16:04 10° SW visible
11 Dec 8.4 16:48:44 10° SSW 16:51:55 34° W 16:55:06 10° NNW visible
12 Dec10.004:13:20SE04:13:20SE04:08:20NEvisible
12 Dec 8.3 05:41:21 10° N 05:47:26 14° SSW 05:48:01 10° SSW visible
13 Dec 8.9 05:12:46 10° NNE 05:19:00 14° S 05:19:30 10° S visible
13 Dec8.706:53:05WSW06:53:05WSW06:47:12NNWvisible
13 Dec 9.7 17:26:16 10° SW 17:28:12 14° W 17:30:08 10° NW visible
14 Dec 9.5 04:50:28 10° SSE 04:50:28 10° SSE 04:43:58 - NNE visible
14 Dec 8.7 06:17:48 10° NNW 06:24:34 - SW 06:18:02 11° NNW visible
14 Dec 8.8 16:56:24 10° SSW 16:59:25 28° W 17:02:25 10° NW visible
15 Dec10.104:21:54SE04:21:54SE04:14:51NEvisible
15 Dec 9.0 05:48:50 10° N 05:56:00 - SSW 05:48:54 10° N visible
15 Dec 7.1 16:27:20 10° S 16:30:44 61° W 16:34:08 10° NNW visible
16 Dec9.405:27:23S05:27:23S05:19:50NNEvisible
16 Dec 9.9 17:34:24 10° WSW 17:35:43 12° W 17:37:01 10° WNW visible
17 Dec9.704:58:45SSE04:58:45SSE04:50:47NNEvisible
17 Dec 9.1 17:04:04 10° SSW 17:06:52 23° W 17:09:40 10° NW visible
18 Dec10.204:30:06SSE04:30:06SSE04:21:45NNEvisible
18 Dec9.306:04:10SW06:04:10SW05:55:49Nvisible
18 Dec 7.5 16:34:49 10° S 16:38:08 49° W 16:41:28 10° NNW visible
